contact:dominique.lefevre@mio.osupytheas.fr, maurice.libes@osupytheas.fr, didier.mallarino@osupytheas.fr
Project:EMSO http://www.emso-fr.org/EMSO-France
Depth: 2436.0 m
Title:EMSO Ligure Ouest : Data MII capteur MICROCAT
DateTime_Computer,Latitude,Longitude,Temperature,Conductivity,Pressure,DateTime_Instrument
DateTime_Computer,Latitude,Longitude,degC,S m-1,dbar,DateTime_Instrument
2022-05-13T00:01:33Z,42.805,6.029,13.2997,4.60031,2469.853,2022-5-13T02:03:14Z
2022-05-13T00:04:36Z,42.805,6.029,13.2998,4.60031,2469.844,2022-5-13T02:06:17Z
2022-05-13T00:07:39Z,42.805,6.029,13.2998,4.60031,2469.867,2022-5-13T02:09:20Z
2022-05-13T00:10:42Z,42.805,6.029,13.2998,4.60032,2469.867,2022-5-13T02:12:23Z
2022-05-13T00:13:45Z,42.805,6.029,13.3000,4.60031,2469.876,2022-5-13T02:15:26Z
2022-05-13T00:16:49Z,42.805,6.029,13.3001,4.60032,2469.923,2022-5-13T02:18:29Z
2022-05-13T00:19:52Z,42.805,6.029,13.2996,4.60031,2469.89,2022-5-13T02:21:32Z
2022-05-13T00:22:55Z,42.805,6.029,13.2999,4.60031,2469.853,2022-5-13T02:24:36Z
2022-05-13T00:25:58Z,42.805,6.029,13.2996,4.60031,2469.83,2022-5-13T02:27:39Z
2022-05-13T00:29:01Z,42.805,6.029,13.2998,4.60031,2469.867,2022-5-13T02:30:42Z
2022-05-13T00:32:04Z,42.805,6.029,13.2996,4.60031,2469.867,2022-5-13T02:33:45Z
2022-05-13T00:35:07Z,42.805,6.029,13.2997,4.60031,2469.853,2022-5-13T02:36:48Z
2022-05-13T00:38:10Z,42.805,6.029,13.2997,4.60031,2469.876,2022-5-13T02:39:51Z
2022-05-13T00:41:14Z,42.805,6.029,13.2998,4.60031,2469.853,2022-5-13T02:42:54Z
2022-05-13T00:44:17Z,42.805,6.029,13.2998,4.60031,2469.876,2022-5-13T02:45:57Z
2022-05-13T00:47:20Z,42.805,6.029,13.2997,4.60030,2469.876,2022-5-13T02:49:01Z
2022-05-13T00:50:23Z,42.805,6.029,13.2994,4.60031,2469.89,2022-5-13T02:52:04Z
2022-05-13T00:53:26Z,42.805,6.029,13.2997,4.60031,2469.914,2022-5-13T02:55:07Z
2022-05-13T00:56:29Z,42.805,6.029,13.3000,4.60031,2469.876,2022-5-13T02:58:10Z
2022-05-13T00:59:32Z,42.805,6.029,13.3000,4.60031,2469.867,2022-5-13T03:01:13Z
2022-05-13T01:02:35Z,42.805,6.029,13.2993,4.60031,2469.853,2022-5-13T03:04:16Z
2022-05-13T01:05:39Z,42.805,6.029,13.2999,4.60031,2469.876,2022-5-13T03:07:19Z
2022-05-13T01:08:42Z,42.805,6.029,13.2998,4.60031,2469.9,2022-5-13T03:10:22Z
2022-05-13T01:11:45Z,42.805,6.029,13.2998,4.60031,2469.876,2022-5-13T03:13:25Z
2022-05-13T01:14:48Z,42.805,6.029,13.2998,4.60031,2469.9,2022-5-13T03:16:29Z
2022-05-13T01:17:51Z,42.805,6.029,13.2998,4.60031,2469.89,2022-5-13T03:19:32Z
2022-05-13T01:20:54Z,42.805,6.029,13.2998,4.60032,2469.89,2022-5-13T03:22:35Z
2022-05-13T01:23:57Z,42.805,6.029,13.2999,4.60031,2469.923,2022-5-13T03:25:38Z
2022-05-13T01:27:00Z,42.805,6.029,13.2997,4.60031,2469.9,2022-5-13T03:28:41Z
2022-05-13T01:30:04Z,42.805,6.029,13.2997,4.60031,2469.9,2022-5-13T03:31:44Z
2022-05-13T01:33:07Z,42.805,6.029,13.2998,4.60031,2469.876,2022-5-13T03:34:47Z
2022-05-13T01:36:10Z,42.805,6.029,13.2998,4.60031,2469.9,2022-5-13T03:37:50Z
2022-05-13T01:39:13Z,42.805,6.029,13.2997,4.60032,2469.914,2022-5-13T03:40:54Z
2022-05-13T01:42:16Z,42.805,6.029,13.2996,4.60032,2469.914,2022-5-13T03:43:57Z
2022-05-13T01:45:19Z,42.805,6.029,13.2997,4.60032,2469.96,2022-5-13T03:47:00Z
2022-05-13T01:48:22Z,42.805,6.029,13.2997,4.60031,2469.914,2022-5-13T03:50:03Z
2022-05-13T01:51:25Z,42.805,6.029,13.2996,4.60031,2469.947,2022-5-13T03:53:06Z
2022-05-13T01:54:28Z,42.805,6.029,13.2998,4.60031,2469.9,2022-5-13T03:56:09Z
2022-05-13T01:57:32Z,42.805,6.029,13.2998,4.60031,2469.923,2022-5-13T03:59:12Z
2022-05-13T02:00:35Z,42.805,6.029,13.2996,4.60031,2469.947,2022-5-13T04:02:15Z
2022-05-13T02:03:38Z,42.805,6.029,13.2996,4.60031,2469.947,2022-5-13T04:05:19Z
2022-05-13T02:06:41Z,42.805,6.029,13.3001,4.60031,2469.9,2022-5-13T04:08:22Z
2022-05-13T02:09:44Z,42.805,6.029,13.2998,4.60032,2469.937,2022-5-13T04:11:25Z
2022-05-13T02:12:47Z,42.805,6.029,13.2998,4.60031,2469.923,2022-5-13T04:14:28Z
2022-05-13T02:15:50Z,42.805,6.029,13.2998,4.60031,2469.923,2022-5-13T04:17:31Z
2022-05-13T02:18:53Z,42.805,6.029,13.3000,4.60031,2469.9,2022-5-13T04:20:34Z
2022-05-13T02:21:57Z,42.805,6.029,13.2996,4.60031,2469.923,2022-5-13T04:23:37Z
2022-05-13T02:25:00Z,42.805,6.029,13.2997,4.60031,2469.914,2022-5-13T04:26:40Z
2022-05-13T02:28:03Z,42.805,6.029,13.3000,4.60032,2469.923,2022-5-13T04:29:44Z
2022-05-13T02:31:06Z,42.805,6.029,13.2996,4.60032,2469.923,2022-5-13T04:32:47Z
2022-05-13T02:34:09Z,42.805,6.029,13.2998,4.60032,2469.914,2022-5-13T04:35:50Z
2022-05-13T02:37:12Z,42.805,6.029,13.2997,4.60031,2469.947,2022-5-13T04:38:53Z
2022-05-13T02:40:15Z,42.805,6.029,13.2999,4.60032,2469.937,2022-5-13T04:41:56Z
2022-05-13T02:43:18Z,42.805,6.029,13.3000,4.60033,2469.984,2022-5-13T04:44:59Z
2022-05-13T02:46:22Z,42.805,6.029,13.2998,4.60032,2469.937,2022-5-13T04:48:02Z
2022-05-13T02:49:25Z,42.805,6.029,13.2998,4.60031,2469.923,2022-5-13T04:51:05Z
2022-05-13T02:52:28Z,42.805,6.029,13.3001,4.60032,2469.947,2022-5-13T04:54:09Z
2022-05-13T02:55:31Z,42.805,6.029,13.2996,4.60033,2469.923,2022-5-13T04:57:12Z
2022-05-13T02:58:34Z,42.805,6.029,13.2996,4.60031,2469.97,2022-5-13T05:00:15Z
2022-05-13T03:01:37Z,42.805,6.029,13.2999,4.60031,2469.923,2022-5-13T05:03:18Z
2022-05-13T03:04:40Z,42.805,6.029,13.2996,4.60031,2469.984,2022-5-13T05:06:21Z
2022-05-13T03:07:43Z,42.805,6.029,13.2994,4.60031,2469.97,2022-5-13T05:09:24Z
2022-05-13T03:10:47Z,42.805,6.029,13.2996,4.60031,2469.947,2022-5-13T05:12:27Z
2022-05-13T03:13:50Z,42.805,6.029,13.2999,4.60031,2469.947,2022-5-13T05:15:30Z
2022-05-13T03:16:53Z,42.805,6.029,13.3000,4.60033,2469.97,2022-5-13T05:18:33Z
2022-05-13T03:19:56Z,42.805,6.029,13.2997,4.60032,2469.984,2022-5-13T05:21:37Z
2022-05-13T03:22:59Z,42.805,6.029,13.2998,4.60032,2469.937,2022-5-13T05:24:40Z
2022-05-13T03:26:02Z,42.805,6.029,13.2996,4.60033,2469.923,2022-5-13T05:27:43Z
2022-05-13T03:29:05Z,42.805,6.029,13.2999,4.60032,2469.97,2022-5-13T05:30:46Z
2022-05-13T03:32:08Z,42.805,6.029,13.3000,4.60031,2469.947,2022-5-13T05:33:49Z
2022-05-13T03:35:12Z,42.805,6.029,13.2998,4.60032,2469.947,2022-5-13T05:36:52Z
2022-05-13T03:38:15Z,42.805,6.029,13.2996,4.60032,2469.97,2022-5-13T05:39:55Z
2022-05-13T03:41:18Z,42.805,6.029,13.2998,4.60031,2469.984,2022-5-13T05:42:58Z
2022-05-13T03:44:21Z,42.805,6.029,13.3000,4.60032,2469.984,2022-5-13T05:46:02Z
2022-05-13T03:47:24Z,42.805,6.029,13.2999,4.60032,2469.96,2022-5-13T05:49:05Z
2022-05-13T03:50:27Z,42.805,6.029,13.2998,4.60032,2469.97,2022-5-13T05:52:08Z
2022-05-13T03:53:30Z,42.805,6.029,13.2998,4.60032,2469.984,2022-5-13T05:55:11Z
2022-05-13T03:56:33Z,42.805,6.029,13.2999,4.60032,2469.947,2022-5-13T05:58:14Z
2022-05-13T03:59:36Z,42.805,6.029,13.2999,4.60033,2469.97,2022-5-13T06:01:17Z
2022-05-13T04:02:40Z,42.805,6.029,13.2998,4.60032,2469.97,2022-5-13T06:04:20Z
2022-05-13T04:05:43Z,42.805,6.029,13.2999,4.60033,2469.96,2022-5-13T06:07:23Z
2022-05-13T04:08:46Z,42.805,6.029,13.2998,4.60032,2469.947,2022-5-13T06:10:27Z
2022-05-13T04:11:49Z,42.805,6.029,13.3001,4.60033,2469.947,2022-5-13T06:13:30Z
2022-05-13T04:14:52Z,42.805,6.029,13.2996,4.60032,2470.007,2022-5-13T06:16:33Z
2022-05-13T04:17:55Z,42.805,6.029,13.2998,4.60034,2469.947,2022-5-13T06:19:36Z
2022-05-13T04:20:58Z,42.805,6.029,13.3002,4.60033,2469.993,2022-5-13T06:22:39Z
2022-05-13T04:24:01Z,42.805,6.029,13.2998,4.60033,2469.984,2022-5-13T06:25:42Z
2022-05-13T04:27:05Z,42.805,6.029,13.2998,4.60032,2469.97,2022-5-13T06:28:45Z
2022-05-13T04:30:08Z,42.805,6.029,13.2997,4.60032,2470.007,2022-5-13T06:31:48Z
2022-05-13T04:33:11Z,42.805,6.029,13.3000,4.60032,2469.97,2022-5-13T06:34:52Z
2022-05-13T04:36:14Z,42.805,6.029,13.2996,4.60033,2469.984,2022-5-13T06:37:55Z
2022-05-13T04:39:17Z,42.805,6.029,13.3002,4.60033,2469.947,2022-5-13T06:40:58Z
2022-05-13T04:42:20Z,42.805,6.029,13.3002,4.60032,2469.97,2022-5-13T06:44:01Z
2022-05-13T04:45:23Z,42.805,6.029,13.2998,4.60032,2469.97,2022-5-13T06:47:04Z
2022-05-13T04:48:26Z,42.805,6.029,13.3000,4.60032,2469.984,2022-5-13T06:50:07Z
2022-05-13T04:51:30Z,42.805,6.029,13.2999,4.60033,2470.007,2022-5-13T06:53:10Z
2022-05-13T04:54:33Z,42.805,6.029,13.3000,4.60033,2469.984,2022-5-13T06:56:13Z
2022-05-13T04:57:36Z,42.805,6.029,13.2998,4.60033,2469.993,2022-5-13T06:59:17Z
2022-05-13T05:00:39Z,42.805,6.029,13.2998,4.60033,2469.97,2022-5-13T07:02:20Z
2022-05-13T05:03:42Z,42.805,6.029,13.2998,4.60033,2469.96,2022-5-13T07:05:23Z
2022-05-13T05:06:45Z,42.805,6.029,13.3000,4.60033,2469.993,2022-5-13T07:08:26Z
2022-05-13T05:09:48Z,42.805,6.029,13.2999,4.60033,2469.993,2022-5-13T07:11:29Z
2022-05-13T05:12:51Z,42.805,6.029,13.2996,4.60033,2469.993,2022-5-13T07:14:32Z
2022-05-13T05:15:55Z,42.805,6.029,13.3000,4.60033,2469.933,2022-5-13T07:17:35Z
2022-05-13T05:18:58Z,42.805,6.029,13.2999,4.60033,2469.97,2022-5-13T07:20:38Z
2022-05-13T05:22:01Z,42.805,6.029,13.2998,4.60032,2469.97,2022-5-13T07:23:41Z
2022-05-13T05:25:04Z,42.805,6.029,13.2998,4.60032,2469.937,2022-5-13T07:26:45Z
2022-05-13T05:28:07Z,42.805,6.029,13.3000,4.60033,2469.947,2022-5-13T07:29:48Z
2022-05-13T05:31:10Z,42.805,6.029,13.2996,4.60033,2469.923,2022-5-13T07:32:51Z
2022-05-13T05:34:13Z,42.805,6.029,13.2996,4.60033,2469.97,2022-5-13T07:35:54Z
2022-05-13T05:37:16Z,42.805,6.029,13.2998,4.60033,2469.937,2022-5-13T07:38:57Z
2022-05-13T05:40:19Z,42.805,6.029,13.3001,4.60033,2469.947,2022-5-13T07:42:00Z
2022-05-13T05:43:23Z,42.805,6.029,13.3002,4.60032,2469.984,2022-5-13T07:45:03Z
2022-05-13T05:46:26Z,42.805,6.029,13.2998,4.60033,2469.96,2022-5-13T07:48:06Z
2022-05-13T05:49:29Z,42.805,6.029,13.2996,4.60033,2469.97,2022-5-13T07:51:10Z
2022-05-13T05:52:32Z,42.805,6.029,13.3000,4.60033,2469.96,2022-5-13T07:54:13Z
2022-05-13T05:55:35Z,42.805,6.029,13.2998,4.60033,2469.937,2022-5-13T07:57:16Z
2022-05-13T05:58:38Z,42.805,6.029,13.2998,4.60033,2469.947,2022-5-13T08:00:19Z
2022-05-13T06:01:41Z,42.805,6.029,13.2999,4.60034,2469.947,2022-5-13T08:03:22Z
2022-05-13T06:04:44Z,42.805,6.029,13.2998,4.60033,2469.96,2022-5-13T08:06:25Z
2022-05-13T06:07:48Z,42.805,6.029,13.2999,4.60033,2469.947,2022-5-13T08:09:28Z
2022-05-13T06:10:51Z,42.805,6.029,13.3000,4.60033,2469.947,2022-5-13T08:12:31Z
2022-05-13T06:13:54Z,42.805,6.029,13.3000,4.60033,2469.937,2022-5-13T08:15:35Z
2022-05-13T06:16:57Z,42.805,6.029,13.3001,4.60032,2469.947,2022-5-13T08:18:38Z
2022-05-13T06:20:00Z,42.805,6.029,13.3000,4.60033,2469.923,2022-5-13T08:21:41Z
2022-05-13T06:23:03Z,42.805,6.029,13.2999,4.60033,2469.876,2022-5-13T08:24:44Z
2022-05-13T06:26:06Z,42.805,6.029,13.2997,4.60033,2469.914,2022-5-13T08:27:47Z
2022-05-13T06:29:09Z,42.805,6.029,13.3000,4.60033,2469.937,2022-5-13T08:30:50Z
2022-05-13T06:32:13Z,42.805,6.029,13.3000,4.60033,2469.9,2022-5-13T08:33:53Z
2022-05-13T06:35:16Z,42.805,6.029,13.2998,4.60033,2469.937,2022-5-13T08:36:56Z
2022-05-13T06:38:19Z,42.805,6.029,13.2998,4.60034,2469.914,2022-5-13T08:40:00Z
2022-05-13T06:41:22Z,42.805,6.029,13.3001,4.60033,2469.876,2022-5-13T08:43:03Z
2022-05-13T06:44:25Z,42.805,6.029,13.3000,4.60033,2469.9,2022-5-13T08:46:06Z
2022-05-13T06:47:28Z,42.805,6.029,13.2997,4.60034,2469.876,2022-5-13T08:49:09Z
2022-05-13T06:50:31Z,42.805,6.029,13.3001,4.60033,2469.923,2022-5-13T08:52:12Z
2022-05-13T06:53:34Z,42.805,6.029,13.3000,4.60033,2469.9,2022-5-13T08:55:15Z
2022-05-13T06:56:37Z,42.805,6.029,13.3002,4.60033,2469.914,2022-5-13T08:58:18Z
2022-05-13T06:59:41Z,42.805,6.029,13.2999,4.60033,2469.9,2022-5-13T09:01:21Z
2022-05-13T07:02:44Z,42.805,6.029,13.3000,4.60033,2469.853,2022-5-13T09:04:24Z
2022-05-13T07:05:47Z,42.805,6.029,13.3003,4.60033,2469.89,2022-5-13T09:07:28Z
2022-05-13T07:08:50Z,42.805,6.029,13.3001,4.60033,2469.876,2022-5-13T09:10:31Z
2022-05-13T07:11:53Z,42.805,6.029,13.2999,4.60033,2469.9,2022-5-13T09:13:34Z
2022-05-13T07:14:56Z,42.805,6.029,13.2998,4.60033,2469.89,2022-5-13T09:16:37Z
2022-05-13T07:17:59Z,42.805,6.029,13.2998,4.60033,2469.914,2022-5-13T09:19:40Z
2022-05-13T07:21:02Z,42.805,6.029,13.2998,4.60033,2469.876,2022-5-13T09:22:43Z
2022-05-13T07:24:06Z,42.805,6.029,13.2993,4.60032,2469.853,2022-5-13T09:25:46Z
2022-05-13T07:27:09Z,42.805,6.029,13.2997,4.60033,2469.853,2022-5-13T09:28:49Z
2022-05-13T07:30:12Z,42.805,6.029,13.3000,4.60033,2469.876,2022-5-13T09:31:53Z
2022-05-13T07:33:15Z,42.805,6.029,13.3000,4.60033,2469.853,2022-5-13T09:34:56Z
2022-05-13T07:36:18Z,42.805,6.029,13.2998,4.60032,2469.867,2022-5-13T09:37:59Z
2022-05-13T07:39:21Z,42.805,6.029,13.3001,4.60033,2469.853,2022-5-13T09:41:02Z
2022-05-13T07:42:24Z,42.805,6.029,13.2997,4.60032,2469.853,2022-5-13T09:44:05Z
2022-05-13T07:45:27Z,42.805,6.029,13.3000,4.60032,2469.83,2022-5-13T09:47:08Z
2022-05-13T07:48:31Z,42.805,6.029,13.3001,4.60033,2469.853,2022-5-13T09:50:11Z
2022-05-13T07:51:34Z,42.805,6.029,13.2997,4.60032,2469.844,2022-5-13T09:53:14Z
2022-05-13T07:54:37Z,42.805,6.029,13.3002,4.60031,2469.83,2022-5-13T09:56:18Z
2022-05-13T07:57:40Z,42.805,6.029,13.2996,4.60031,2469.844,2022-5-13T09:59:21Z
2022-05-13T08:00:43Z,42.805,6.029,13.2995,4.60032,2469.821,2022-5-13T10:02:24Z
2022-05-13T08:03:46Z,42.805,6.029,13.2996,4.60033,2469.83,2022-5-13T10:05:27Z
2022-05-13T08:06:49Z,42.805,6.029,13.2998,4.60032,2469.83,2022-5-13T10:08:30Z
2022-05-13T08:09:52Z,42.805,6.029,13.3000,4.60031,2469.83,2022-5-13T10:11:33Z
2022-05-13T08:12:56Z,42.805,6.029,13.2999,4.60032,2469.806,2022-5-13T10:14:36Z
2022-05-13T08:15:59Z,42.805,6.029,13.2995,4.60031,2469.806,2022-5-13T10:17:39Z
2022-05-13T08:19:02Z,42.805,6.029,13.3001,4.60033,2469.821,2022-5-13T10:20:43Z
2022-05-13T08:22:05Z,42.805,6.029,13.2999,4.60033,2469.839,2022-5-13T10:23:46Z
2022-05-13T08:25:08Z,42.805,6.029,13.2995,4.60032,2469.83,2022-5-13T10:26:49Z
2022-05-13T08:28:11Z,42.805,6.029,13.3002,4.60032,2469.83,2022-5-13T10:29:52Z
2022-05-13T08:31:14Z,42.805,6.029,13.2998,4.60031,2469.83,2022-5-13T10:32:55Z
2022-05-13T08:34:17Z,42.805,6.029,13.2996,4.60032,2469.821,2022-5-13T10:35:58Z
2022-05-13T08:37:21Z,42.805,6.029,13.2999,4.60032,2469.806,2022-5-13T10:39:01Z
2022-05-13T08:40:24Z,42.805,6.029,13.2999,4.60031,2469.797,2022-5-13T10:42:04Z
2022-05-13T08:43:27Z,42.805,6.029,13.3000,4.60032,2469.844,2022-5-13T10:45:08Z
2022-05-13T08:46:30Z,42.805,6.029,13.2998,4.60031,2469.821,2022-5-13T10:48:11Z
2022-05-13T08:49:33Z,42.805,6.029,13.2996,4.60032,2469.806,2022-5-13T10:51:14Z
2022-05-13T08:52:36Z,42.805,6.029,13.3000,4.60032,2469.797,2022-5-13T10:54:17Z
2022-05-13T08:55:39Z,42.805,6.029,13.3000,4.60031,2469.76,2022-5-13T10:57:20Z
2022-05-13T08:58:42Z,42.805,6.029,13.2998,4.60031,2469.783,2022-5-13T11:00:23Z
2022-05-13T09:01:46Z,42.805,6.029,13.2995,4.60033,2469.76,2022-5-13T11:03:26Z
2022-05-13T09:04:49Z,42.805,6.029,13.3004,4.60031,2469.821,2022-5-13T11:06:29Z
2022-05-13T09:07:52Z,42.805,6.029,13.3001,4.60033,2469.797,2022-5-13T11:09:33Z
2022-05-13T09:10:55Z,42.805,6.029,13.2997,4.60032,2469.783,2022-5-13T11:12:36Z
2022-05-13T09:13:58Z,42.805,6.029,13.3000,4.60032,2469.783,2022-5-13T11:15:39Z
2022-05-13T09:17:01Z,42.805,6.029,13.2999,4.60033,2469.76,2022-5-13T11:18:42Z
2022-05-13T09:20:04Z,42.805,6.029,13.2998,4.60033,2469.76,2022-5-13T11:21:45Z
2022-05-13T09:23:07Z,42.805,6.029,13.3000,4.60032,2469.797,2022-5-13T11:24:48Z
2022-05-13T09:26:11Z,42.805,6.029,13.3000,4.60031,2469.797,2022-5-13T11:27:51Z
2022-05-13T09:29:14Z,42.805,6.029,13.2997,4.60031,2469.797,2022-5-13T11:30:54Z
2022-05-13T09:32:17Z,42.805,6.029,13.3001,4.60033,2469.713,2022-5-13T11:33:58Z
2022-05-13T09:35:20Z,42.805,6.029,13.2998,4.60033,2469.773,2022-5-13T11:37:01Z
2022-05-13T09:38:23Z,42.805,6.029,13.2998,4.60032,2469.76,2022-5-13T11:40:04Z
2022-05-13T09:41:26Z,42.805,6.029,13.2999,4.60032,2469.783,2022-5-13T11:43:07Z
2022-05-13T09:44:29Z,42.805,6.029,13.3000,4.60032,2469.76,2022-5-13T11:46:10Z
2022-05-13T09:47:32Z,42.805,6.029,13.3004,4.60033,2469.76,2022-5-13T11:49:13Z
2022-05-13T09:50:36Z,42.805,6.029,13.2997,4.60032,2469.727,2022-5-13T11:52:16Z
2022-05-13T09:53:39Z,42.805,6.029,13.2998,4.60032,2469.75,2022-5-13T11:55:19Z
2022-05-13T09:56:42Z,42.805,6.029,13.2999,4.60032,2469.737,2022-5-13T11:58:23Z
2022-05-13T09:59:45Z,42.805,6.029,13.3000,4.60033,2469.773,2022-5-13T12:01:26Z
2022-05-13T10:02:48Z,42.805,6.029,13.3000,4.60033,2469.76,2022-5-13T12:04:29Z
2022-05-13T10:05:51Z,42.805,6.029,13.3001,4.60032,2469.773,2022-5-13T12:07:32Z
2022-05-13T10:08:54Z,42.805,6.029,13.2997,4.60033,2469.713,2022-5-13T12:10:35Z
2022-05-13T10:11:57Z,42.805,6.029,13.3001,4.60033,2469.737,2022-5-13T12:13:38Z
2022-05-13T10:15:01Z,42.805,6.029,13.2998,4.60033,2469.727,2022-5-13T12:16:41Z
2022-05-13T10:18:04Z,42.805,6.029,13.2999,4.60032,2469.727,2022-5-13T12:19:44Z
2022-05-13T10:21:07Z,42.805,6.029,13.3000,4.60032,2469.727,2022-5-13T12:22:48Z
2022-05-13T10:24:10Z,42.805,6.029,13.2998,4.60033,2469.713,2022-5-13T12:25:51Z
2022-05-13T10:27:13Z,42.805,6.029,13.2999,4.60033,2469.727,2022-5-13T12:28:54Z
2022-05-13T10:30:16Z,42.805,6.029,13.2999,4.60032,2469.713,2022-5-13T12:31:57Z
2022-05-13T10:33:19Z,42.805,6.029,13.3002,4.60033,2469.737,2022-5-13T12:35:00Z
2022-05-13T10:36:22Z,42.805,6.029,13.3003,4.60032,2469.75,2022-5-13T12:38:03Z
2022-05-13T10:39:26Z,42.805,6.029,13.2998,4.60033,2469.69,2022-5-13T12:41:06Z
2022-05-13T10:42:29Z,42.805,6.029,13.3000,4.60032,2469.713,2022-5-13T12:44:09Z
2022-05-13T10:45:32Z,42.805,6.029,13.2996,4.60033,2469.713,2022-5-13T12:47:13Z
2022-05-13T10:48:35Z,42.805,6.029,13.3000,4.60033,2469.713,2022-5-13T12:50:16Z
2022-05-13T10:51:38Z,42.805,6.029,13.2998,4.60033,2469.727,2022-5-13T12:53:19Z
2022-05-13T10:54:41Z,42.805,6.029,13.3002,4.60033,2469.737,2022-5-13T12:56:22Z
2022-05-13T10:57:44Z,42.805,6.029,13.3001,4.60033,2469.69,2022-5-13T12:59:25Z
2022-05-13T11:00:47Z,42.805,6.029,13.3000,4.60033,2469.713,2022-5-13T13:02:28Z
2022-05-13T11:03:51Z,42.805,6.029,13.3000,4.60033,2469.667,2022-5-13T13:05:31Z
2022-05-13T11:06:54Z,42.805,6.029,13.2999,4.60033,2469.69,2022-5-13T13:08:34Z
2022-05-13T11:09:57Z,42.805,6.029,13.2996,4.60032,2469.737,2022-5-13T13:11:38Z
2022-05-13T11:13:00Z,42.805,6.029,13.3003,4.60033,2469.69,2022-5-13T13:14:41Z
2022-05-13T11:16:03Z,42.805,6.029,13.2998,4.60033,2469.69,2022-5-13T13:17:44Z
2022-05-13T11:19:06Z,42.805,6.029,13.3002,4.60033,2469.667,2022-5-13T13:20:47Z
2022-05-13T11:22:09Z,42.805,6.029,13.3000,4.60033,2469.69,2022-5-13T13:23:50Z
2022-05-13T11:25:12Z,42.805,6.029,13.2998,4.60033,2469.69,2022-5-13T13:26:53Z
2022-05-13T11:28:16Z,42.805,6.029,13.2998,4.60033,2469.713,2022-5-13T13:29:56Z
2022-05-13T11:31:19Z,42.805,6.029,13.2998,4.60033,2469.69,2022-5-13T13:32:59Z
2022-05-13T11:34:22Z,42.805,6.029,13.2998,4.60033,2469.704,2022-5-13T13:36:03Z
2022-05-13T11:37:25Z,42.805,6.029,13.2999,4.60033,2469.667,2022-5-13T13:39:06Z
2022-05-13T11:40:28Z,42.805,6.029,13.3000,4.60034,2469.713,2022-5-13T13:42:09Z
2022-05-13T11:43:31Z,42.805,6.029,13.3003,4.60033,2469.713,2022-5-13T13:45:12Z
2022-05-13T11:46:34Z,42.805,6.029,13.2999,4.60034,2469.704,2022-5-13T13:48:15Z
2022-05-13T11:49:37Z,42.805,6.029,13.3001,4.60033,2469.713,2022-5-13T13:51:18Z
2022-05-13T11:52:41Z,42.805,6.029,13.2999,4.60033,2469.69,2022-5-13T13:54:21Z
2022-05-13T11:55:44Z,42.805,6.029,13.3000,4.60034,2469.69,2022-5-13T13:57:24Z
2022-05-13T11:58:47Z,42.805,6.029,13.3006,4.60033,2469.667,2022-5-13T14:00:28Z
2022-05-13T12:01:50Z,42.805,6.029,13.3003,4.60033,2469.68,2022-5-13T14:03:31Z
2022-05-13T12:04:53Z,42.805,6.029,13.3001,4.60033,2469.657,2022-5-13T14:06:34Z
2022-05-13T12:07:56Z,42.805,6.029,13.2998,4.60033,2469.667,2022-5-13T14:09:37Z
2022-05-13T12:10:59Z,42.805,6.029,13.2999,4.60033,2469.667,2022-5-13T14:12:40Z
2022-05-13T12:14:02Z,42.805,6.029,13.2998,4.60033,2469.667,2022-5-13T14:15:43Z
2022-05-13T12:17:06Z,42.805,6.029,13.3002,4.60033,2469.68,2022-5-13T14:18:46Z
2022-05-13T12:20:09Z,42.805,6.029,13.3002,4.60034,2469.667,2022-5-13T14:21:49Z
2022-05-13T12:23:12Z,42.805,6.029,13.3001,4.60034,2469.653,2022-5-13T14:24:53Z
2022-05-13T12:26:15Z,42.805,6.029,13.3000,4.60034,2469.68,2022-5-13T14:27:56Z
2022-05-13T12:29:18Z,42.805,6.029,13.2998,4.60035,2469.643,2022-5-13T14:30:59Z
2022-05-13T12:32:21Z,42.805,6.029,13.3004,4.60034,2469.667,2022-5-13T14:34:02Z
2022-05-13T12:35:24Z,42.805,6.029,13.2998,4.60035,2469.704,2022-5-13T14:37:05Z
2022-05-13T12:38:27Z,42.805,6.029,13.3000,4.60035,2469.667,2022-5-13T14:40:08Z
2022-05-13T12:41:31Z,42.805,6.029,13.2998,4.60034,2469.68,2022-5-13T14:43:11Z
2022-05-13T12:44:34Z,42.805,6.029,13.3005,4.60036,2469.69,2022-5-13T14:46:14Z
2022-05-13T12:47:37Z,42.805,6.029,13.3002,4.60034,2469.68,2022-5-13T14:49:18Z
2022-05-13T12:50:40Z,42.805,6.029,13.3006,4.60034,2469.667,2022-5-13T14:52:21Z
2022-05-13T12:53:43Z,42.805,6.029,13.3003,4.60035,2469.69,2022-5-13T14:55:24Z
2022-05-13T12:56:46Z,42.805,6.029,13.3002,4.60036,2469.643,2022-5-13T14:58:27Z
2022-05-13T12:59:49Z,42.805,6.029,13.3002,4.60035,2469.704,2022-5-13T15:01:30Z
2022-05-13T13:02:52Z,42.805,6.029,13.3002,4.60035,2469.69,2022-5-13T15:04:33Z
2022-05-13T13:05:56Z,42.805,6.029,13.3000,4.60035,2469.713,2022-5-13T15:07:36Z
2022-05-13T13:08:59Z,42.805,6.029,13.3001,4.60034,2469.643,2022-5-13T15:10:39Z
2022-05-13T13:12:02Z,42.805,6.029,13.3002,4.60034,2469.704,2022-5-13T15:13:43Z
2022-05-13T13:15:05Z,42.805,6.029,13.3003,4.60036,2469.69,2022-5-13T15:16:46Z
2022-05-13T13:18:08Z,42.805,6.029,13.3000,4.60034,2469.713,2022-5-13T15:19:49Z
2022-05-13T13:21:11Z,42.805,6.029,13.3003,4.60035,2469.69,2022-5-13T15:22:52Z
2022-05-13T13:24:14Z,42.805,6.029,13.3001,4.60038,2469.667,2022-5-13T15:25:55Z
2022-05-13T13:27:17Z,42.805,6.029,13.3003,4.60036,2469.727,2022-5-13T15:28:58Z
2022-05-13T13:30:21Z,42.805,6.029,13.3000,4.60036,2469.727,2022-5-13T15:32:01Z
2022-05-13T13:33:24Z,42.805,6.029,13.3003,4.60036,2469.713,2022-5-13T15:35:04Z
2022-05-13T13:36:27Z,42.805,6.029,13.3000,4.60035,2469.699,2022-5-13T15:38:08Z
2022-05-13T13:39:30Z,42.805,6.029,13.3001,4.60036,2469.713,2022-5-13T15:41:11Z
2022-05-13T13:42:33Z,42.805,6.029,13.3000,4.60036,2469.69,2022-5-13T15:44:14Z
2022-05-13T13:45:36Z,42.805,6.029,13.3004,4.60035,2469.704,2022-5-13T15:47:17Z
2022-05-13T13:48:39Z,42.805,6.029,13.3004,4.60036,2469.713,2022-5-13T15:50:20Z
2022-05-13T13:51:42Z,42.805,6.029,13.3001,4.60036,2469.737,2022-5-13T15:53:23Z
2022-05-13T13:54:46Z,42.805,6.029,13.3006,4.60036,2469.727,2022-5-13T15:56:26Z
2022-05-13T13:57:49Z,42.805,6.029,13.3000,4.60035,2469.75,2022-5-13T15:59:29Z
2022-05-13T14:00:52Z,42.805,6.029,13.3001,4.60036,2469.737,2022-5-13T16:02:33Z
2022-05-13T14:03:55Z,42.805,6.029,13.3004,4.60036,2469.713,2022-5-13T16:05:36Z
2022-05-13T14:06:58Z,42.805,6.029,13.3004,4.60035,2469.76,2022-5-13T16:08:39Z
2022-05-13T14:10:01Z,42.805,6.029,13.3000,4.60036,2469.75,2022-5-13T16:11:42Z
2022-05-13T14:13:04Z,42.805,6.029,13.2999,4.60035,2469.727,2022-5-13T16:14:45Z
2022-05-13T14:16:08Z,42.805,6.029,13.3000,4.60035,2469.75,2022-5-13T16:17:48Z
2022-05-13T14:19:11Z,42.805,6.029,13.3004,4.60036,2469.76,2022-5-13T16:20:51Z
2022-05-13T14:22:14Z,42.805,6.029,13.3003,4.60036,2469.746,2022-5-13T16:23:55Z
2022-05-13T14:25:17Z,42.805,6.029,13.3001,4.60036,2469.737,2022-5-13T16:26:58Z
2022-05-13T14:28:20Z,42.805,6.029,13.3003,4.60036,2469.76,2022-5-13T16:30:01Z
2022-05-13T14:31:23Z,42.805,6.029,13.3000,4.60039,2469.773,2022-5-13T16:33:04Z
2022-05-13T14:34:26Z,42.805,6.029,13.2999,4.60036,2469.76,2022-5-13T16:36:07Z
2022-05-13T14:37:29Z,42.805,6.029,13.3002,4.60037,2469.76,2022-5-13T16:39:10Z
2022-05-13T14:40:33Z,42.805,6.029,13.3003,4.60037,2469.737,2022-5-13T16:42:13Z
2022-05-13T14:43:36Z,42.805,6.029,13.3003,4.60035,2469.76,2022-5-13T16:45:16Z
2022-05-13T14:46:39Z,42.805,6.029,13.3004,4.60036,2469.76,2022-5-13T16:48:20Z
2022-05-13T14:49:42Z,42.805,6.029,13.2999,4.60036,2469.797,2022-5-13T16:51:23Z
2022-05-13T14:52:45Z,42.805,6.029,13.3004,4.60035,2469.783,2022-5-13T16:54:26Z
2022-05-13T14:55:48Z,42.805,6.029,13.3000,4.60037,2469.783,2022-5-13T16:57:29Z
2022-05-13T14:58:51Z,42.805,6.029,13.3000,4.60036,2469.76,2022-5-13T17:00:32Z
2022-05-13T15:01:54Z,42.805,6.029,13.3000,4.60036,2469.76,2022-5-13T17:03:35Z
2022-05-13T15:04:58Z,42.805,6.029,13.2999,4.60036,2469.783,2022-5-13T17:06:38Z
2022-05-13T15:08:01Z,42.805,6.029,13.3004,4.60036,2469.773,2022-5-13T17:09:41Z
2022-05-13T15:11:04Z,42.805,6.029,13.3004,4.60036,2469.783,2022-5-13T17:12:45Z
2022-05-13T15:14:07Z,42.805,6.029,13.3006,4.60036,2469.783,2022-5-13T17:15:48Z